Location: Ferme V�ronneau
(45.1425°N, 71.8745°W)
Time: 09:49:48
(UTC-05:00)

Envisat - Visible Passes

Search period start: 10 December 2018 00:00
Search period end: 20 December 2018 00:00
Orbit: 764 x 766 km, 98.2° (Epoch: 10 December)

Date Brightness Start Highest point End Pass type
(mag) Time Alt. Az. Time Alt. Az. Time Alt. Az.
10 Dec 4.7 16:50:01 10° ENE 16:51:47 12° NE 16:53:33 10° NE visible
10 Dec 2.8 18:24:53 10° SSE 18:29:56 77° ENE 18:35:02 10° N visible
10 Dec 5.8 20:06:57 10° WSW 20:09:33 14° W 20:12:09 10° WNW visible
11 Dec 5.7 06:32:25 10° NE 06:36:25 23° E 06:40:23 10° SE visible
11 Dec 3.4 17:48:43 10° SE 17:53:21 37° ENE 17:58:00 10° N visible
11 Dec 4.7 19:28:01 10° SSW 19:32:25 30° W 19:36:52 10° NW visible
12 Dec 6.4 05:58:35 10° ENE 05:59:13 10° E 05:59:50 10° E visible
12 Dec 4.2 17:13:28 10° ESE 17:16:58 19° ENE 17:20:28 10° NNE visible
12 Dec 3.3 18:50:28 10° S 18:55:30 63° W 19:00:34 10° NNW visible
13 Dec 2.9 18:13:47 10° SSE 18:18:46 62° ENE 18:23:48 10° N visible
13 Dec 5.5 19:54:52 10° SW 19:58:13 18° W 20:01:36 10° NW visible
14 Dec 5.8 06:21:37 10° NE 06:25:06 18° E 06:28:35 10° SE visible
14 Dec 3.7 17:37:51 10° SE 17:42:14 30° ENE 17:46:38 10° N visible
14 Dec 4.3 19:16:29 10° SSW 19:21:09 37° W 19:25:51 10° NNW visible
15 Dec 4.4 17:02:58 10° E 17:05:54 16° ENE 17:08:51 10° NNE visible
15 Dec 3.0 18:39:13 10° S 18:44:17 79° WSW 18:49:24 10° NNW visible
16 Dec 5.1 06:46:24 10° NNE 06:50:54 31° E 06:55:22 10° SSE visible
16 Dec 3.1 18:02:44 10° SE 18:07:37 50° ENE 18:12:31 10° N visible
16 Dec 5.2 19:43:01 10° SW 19:46:54 22° W 19:50:49 10° NW visible
17 Dec 6.0 06:11:00 10° NE 06:13:47 15° E 06:16:33 10° ESE visible
17 Dec 3.9 17:27:05 10° ESE 17:31:08 25° ENE 17:35:13 10° N visible
17 Dec 3.9 19:05:03 10° S 19:09:54 46° W 19:14:48 10° NNW visible
18 Dec 4.6 16:52:41 10° E 16:54:52 13° ENE 16:57:03 10° NNE visible
18 Dec 2.8 18:28:01 10° SSE 18:33:05 84° ENE 18:38:12 10° NNW visible
18 Dec 5.9 20:10:35 10° WSW 20:12:46 13° W 20:14:57 10° WNW visible
19 Dec 5.5 06:35:28 10° NE 06:39:37 25° E 06:43:45 10° SSE visible
19 Dec 3.3 17:51:46 10° SE 17:56:29 40° ENE 18:01:12 10° N visible
19 Dec 4.9 19:31:20 10° SSW 19:35:36 27° W 19:39:55 10° NW visible
